Wadena, MN

7:49 AM CDT on March 30, 2017 (GMT -0500)
Wadena Municipal

Weather History for KADC - March, 2013

Change the Weather History Date:

Sunday, March 17, 2013

  Actual Average Record
Temperature  
Mean Temperature 0 °F -  
Max Temperature 17 °F 35 °F 71 °F (2012)
Min Temperature -18 °F 14 °F -20 °F (1941)
Degree Days  
Heating Degree Days 66    
Moisture  
Dew Point -4 °F    
Average Humidity 75    
Maximum Humidity 93    
Minimum Humidity 58    
Precipitation  
Precipitation 0.00 in - - ()
Sea Level Pressure  
Sea Level Pressure 30.02 in    
Wind  
Wind Speed 7 mph (ESE)    
Max Wind Speed 21 mph    
Max Gust Speed 26 mph    
Visibility 9 miles    
Events Snow    
Averages and records for this station are not official NWS values.
T = Trace of Precipitation, MM = Missing Value Source: NWS Daily Summary

Daily Weather History Graph

Daily Weather History Graph

Search for Another Location

Airport or City:

Trip Planner

Search our weather history database for the weather conditions in past years. The results will help you decide how hot, cold, wet, or windy it might be!

Date:

Astronomy

Mar. 17, 2013 Rise Set
Actual Time 7:29 AM CDT 7:29 PM CDT
Civil Twilight 6:59 AM CDT 7:59 PM CDT
Nautical Twilight 6:24 AM CDT 8:35 PM CDT
Astronomical Twilight 5:48 AM CDT 9:11 PM CDT
Moon 10:23 AM CDT (3/17) 12:57 AM CDT (3/17)
Length of Visible Light 13h 00m
Length of Day
12h 00m
Waxing Crescent, 31% of the Moon is Illuminated
Mar 17
Waxing Crescent
Mar 19
First Quarter
Mar 27
Full
Apr 2
Last Quarter
Apr 10
New

Hourly Weather History & Observations

Time (CDT) Temp. Windchill Dew Point Humidity Pressure Visibility Wind Dir Wind Speed Gust Speed Precip Events Conditions
12:15 AM -9.4 °F -18.6 °F -11.2 °F 92% 30.23 in 10.0 mi WNW 3.5 mph - N/A   Clear
12:35 AM -7.6 °F -16.5 °F -11.2 °F 84% 30.23 in 10.0 mi NW 3.5 mph - N/A   Clear
12:53 AM -11.2 °F -20.6 °F -16.6 °F 77% 30.23 in 10.0 mi NNW 3.5 mph - N/A   Clear
1:15 AM -9.4 °F - -14.8 °F 77% 30.23 in 10.0 mi Calm Calm - N/A   Clear
1:35 AM -11.2 °F - -16.6 °F 77% 30.23 in 10.0 mi Calm Calm - N/A   Clear
1:52 AM -11.2 °F - -16.6 °F 77% 30.22 in 10.0 mi Calm Calm - N/A   Clear
2:15 AM -11.2 °F - -16.6 °F 77% 30.22 in 10.0 mi Calm Calm - N/A   Clear
2:35 AM -13.0 °F - -16.6 °F 84% 30.21 in 10.0 mi Calm Calm - N/A   Clear
2:53 AM -14.8 °F - -18.4 °F 84% 30.21 in 10.0 mi Calm Calm - N/A   Clear
3:14 AM -14.8 °F - -18.4 °F 84% 30.20 in 10.0 mi Calm Calm - N/A   Clear
3:35 AM -16.6 °F - -22.0 °F 76% 30.21 in 10.0 mi Calm Calm - N/A   Clear
3:53 AM -18.4 °F - -23.8 °F 76% 30.21 in 10.0 mi Calm Calm - N/A   Clear
4:14 AM -16.6 °F - -20.2 °F 84% 30.21 in 10.0 mi Calm Calm - N/A   Clear
4:35 AM -16.6 °F - -20.2 °F 84% 30.20 in 10.0 mi Calm Calm - N/A   Clear
4:52 AM -16.6 °F - -22.0 °F 76% 30.20 in 10.0 mi Calm Calm - N/A   Clear
5:15 AM -16.6 °F - -20.2 °F 84% 30.20 in 10.0 mi Calm Calm - N/A   Clear
5:35 AM -18.4 °F - -23.8 °F 76% 30.19 in 10.0 mi Calm Calm - N/A   Clear
5:53 AM -18.4 °F - -23.8 °F 76% 30.19 in 10.0 mi Calm Calm - N/A   Clear
6:15 AM -16.6 °F -26.8 °F -20.2 °F 84% 30.18 in 10.0 mi East 3.5 mph - N/A   Clear
6:35 AM -14.8 °F -24.8 °F -18.4 °F 84% 30.17 in 10.0 mi East 3.5 mph - N/A   Clear
6:53 AM -14.8 °F -29.1 °F -18.4 °F 84% 30.16 in 10.0 mi East 5.8 mph - N/A   Clear
7:15 AM -11.2 °F -23.0 °F -16.6 °F 77% 30.15 in 10.0 mi East 4.6 mph - N/A   Clear
7:34 AM -11.2 °F -23.0 °F -16.6 °F 77% 30.15 in 10.0 mi East 4.6 mph - N/A   Clear
7:52 AM -14.8 °F - -18.4 °F 84% 30.15 in 10.0 mi Calm Calm - N/A   Clear
8:14 AM -11.2 °F -20.6 °F -16.6 °F 77% 30.13 in 10.0 mi ESE 3.5 mph - N/A   Clear
8:34 AM -11.2 °F -20.6 °F -16.6 °F 77% 30.13 in 10.0 mi ESE 3.5 mph - N/A   Clear
8:53 AM -7.6 °F -18.8 °F -9.4 °F 92% 30.13 in 10.0 mi East 4.6 mph - N/A   Scattered Clouds
9:15 AM -5.8 °F -16.7 °F -9.4 °F 84% 30.14 in 10.0 mi ESE 4.6 mph - N/A   Overcast
9:35 AM -2.2 °F -15.6 °F -7.6 °F 78% 30.13 in 10.0 mi East 6.9 mph - N/A   Overcast
9:53 AM -2.2 °F -15.6 °F -5.8 °F 85% 30.12 in 10.0 mi ESE 6.9 mph - N/A   Mostly Cloudy
10:15 AM -0.4 °F -15.7 °F -4.0 °F 85% 30.11 in 10.0 mi SE 9.2 mph - N/A   Mostly Cloudy
10:34 AM 1.4 °F -16.9 °F -2.2 °F 85% 30.09 in 10.0 mi SE 13.8 mph - N/A   Overcast
11:14 AM 5.0 °F -13.6 °F -0.4 °F 78% 30.08 in 7.0 mi SE 16.1 mph - N/A   Mostly Cloudy
11:35 AM 8.6 °F -7.0 °F -0.4 °F 67% 30.08 in 10.0 mi SE 12.7 mph 18.4 mph N/A   Mostly Cloudy
11:53 AM 8.6 °F -8.9 °F -2.2 °F 62% 30.07 in 10.0 mi SSE 16.1 mph 21.9 mph N/A   Overcast
12:15 PM 8.6 °F -9.5 °F -2.2 °F 62% 30.07 in 10.0 mi SE 17.3 mph - N/A   Overcast
12:35 PM 8.6 °F -6.3 °F -0.4 °F 67% 30.06 in 10.0 mi SE 11.5 mph - N/A   Overcast
12:52 PM 10.4 °F -5.4 °F -0.4 °F 62% 30.04 in 7.0 mi SE 13.8 mph 21.9 mph N/A   Mostly Cloudy
1:14 PM 10.4 °F -7.2 °F 1.4 °F 67% 30.03 in 10.0 mi SE 17.3 mph 20.7 mph N/A   Scattered Clouds
1:35 PM 12.2 °F -3.7 °F 1.4 °F 62% 30.02 in 7.0 mi SE 15.0 mph - N/A   Overcast
1:53 PM 12.2 °F -4.8 °F 1.4 °F 62% 30.00 in 7.0 mi SE 17.3 mph 21.9 mph N/A   Mostly Cloudy
2:15 PM 15.8 °F -0.2 °F 3.2 °F 58% 29.99 in 10.0 mi SE 17.3 mph - N/A   Scattered Clouds
2:34 PM 15.8 °F 0.9 °F 3.2 °F 58% 29.98 in 10.0 mi SE 15.0 mph - N/A   Mostly Cloudy
2:53 PM 15.8 °F 1.4 °F 5.0 °F 62% 29.97 in 10.0 mi SE 13.8 mph - N/A   Overcast
3:15 PM 15.8 °F 0.9 °F 5.0 °F 62% 29.95 in 10.0 mi SE 15.0 mph - N/A   Overcast
3:35 PM 15.8 °F 0.3 °F 6.8 °F 68% 29.93 in 10.0 mi SE 16.1 mph - N/A   Overcast
3:52 PM 15.8 °F 1.4 °F 6.8 °F 68% 29.93 in 10.0 mi SE 13.8 mph - N/A   Overcast
4:15 PM 15.8 °F 0.3 °F 6.8 °F 68% 29.91 in 10.0 mi SE 16.1 mph - N/A   Overcast
4:35 PM 15.8 °F 0.9 °F 6.8 °F 68% 29.90 in 10.0 mi ESE 15.0 mph - N/A   Overcast
4:52 PM 15.8 °F 0.3 °F 6.8 °F 68% 29.89 in 10.0 mi SE 16.1 mph - N/A   Overcast
5:14 PM 17.6 °F 3.2 °F 6.8 °F 63% 29.88 in 10.0 mi SE 15.0 mph - N/A   Overcast
5:35 PM 17.6 °F 2.7 °F 6.8 °F 63% 29.87 in 10.0 mi SE 16.1 mph 25.3 mph N/A   Overcast
5:53 PM 15.8 °F -0.6 °F 6.8 °F 68% 29.84 in 10.0 mi ESE 18.4 mph - N/A   Overcast
6:14 PM 15.8 °F -0.2 °F 6.8 °F 68% 29.84 in 10.0 mi ESE 17.3 mph 24.2 mph N/A   Overcast
6:35 PM 15.8 °F 0.3 °F 6.8 °F 68% 29.84 in 10.0 mi ESE 16.1 mph 20.7 mph N/A   Overcast
6:53 PM 15.8 °F 0.9 °F 6.8 °F 68% 29.84 in 10.0 mi ESE 15.0 mph - N/A   Overcast
7:14 PM 15.8 °F 0.9 °F 6.8 °F 68% 29.82 in 10.0 mi ESE 15.0 mph - N/A   Overcast
7:35 PM 17.6 °F 2.7 °F 6.8 °F 63% 29.81 in 10.0 mi ESE 16.1 mph - N/A   Overcast
7:52 PM 17.6 °F 2.7 °F 8.6 °F 68% 29.81 in 10.0 mi SE 16.1 mph 21.9 mph N/A   Overcast
8:14 PM 17.6 °F 2.2 °F 8.6 °F 68% 29.79 in 10.0 mi ESE 17.3 mph 24.2 mph N/A Snow Light Snow
8:35 PM 17.6 °F 1.7 °F 8.6 °F 68% 29.78 in 10.0 mi ESE 18.4 mph 24.2 mph N/A   Overcast
8:53 PM 17.6 °F 2.2 °F 8.6 °F 68% 29.78 in 10.0 mi SE 17.3 mph 24.2 mph N/A   Overcast
9:15 PM 17.6 °F 1.3 °F 8.6 °F 68% 29.78 in 10.0 mi SE 19.6 mph 23.0 mph N/A   Overcast
9:35 PM 17.6 °F 0.9 °F 10.4 °F 73% 29.78 in 5.0 mi SE 20.7 mph 24.2 mph N/A Snow Light Snow
9:52 PM 15.8 °F -1.5 °F 10.4 °F 79% 29.76 in 1.2 mi SE 20.7 mph - N/A Snow Light Snow
10:14 PM 15.8 °F -0.2 °F 12.2 °F 86% 29.75 in 1.2 mi ESE 17.3 mph - N/A Snow Light Snow
10:34 PM 15.8 °F -1.1 °F 12.2 °F 86% 29.74 in 1.8 mi SE 19.6 mph 24.2 mph N/A Snow Light Snow
10:53 PM 15.8 °F -1.5 °F 12.2 °F 86% 29.70 in 1.0 mi ESE 20.7 mph 26.5 mph N/A Snow Light Snow
11:15 PM 15.8 °F -1.1 °F 14.0 °F 93% 29.69 in 0.8 mi ESE 19.6 mph 26.5 mph N/A Snow Snow
11:35 PM 15.8 °F -1.5 °F 14.0 °F 93% 29.66 in 1.0 mi ESE 20.7 mph 25.3 mph N/A Snow Light Snow
11:53 PM 15.8 °F -1.1 °F 14.0 °F 93% 29.66 in 1.0 mi ESE 19.6 mph 25.3 mph N/A Snow Light Snow